TimePST,TemperatureF,Dew PointF,Humidity,Sea Level PressureIn,VisibilityMPH,Wind Direction,Wind SpeedMPH,Gust SpeedMPH,PrecipitationIn,Events,Conditions,WindDirDegrees,DateUTC
12:53 AM,30.0,28.0,92,29.99,10.0,SE,6.9,-,N/A,,Overcast,140,2012-12-11 08:53:00
1:30 AM,30.2,28.4,93,29.91,10.0,South,6.9,-,N/A,,Overcast,170,2012-12-11 09:30:00
1:53 AM,30.0,28.0,92,29.94,10.0,SSE,9.2,-,N/A,,Overcast,160,2012-12-11 09:53:00
2:53 AM,30.0,28.0,92,29.91,10.0,South,6.9,-,N/A,,Overcast,180,2012-12-11 10:53:00
3:53 AM,30.9,28.0,89,29.89,10.0,SE,5.8,-,N/A,,Overcast,130,2012-12-11 11:53:00
4:53 AM,30.9,28.0,89,29.87,10.0,Calm,Calm,-,N/A,,Overcast,0,2012-12-11 12:53:00
5:53 AM,30.9,28.0,89,29.84,10.0,Calm,Calm,-,N/A,,Overcast,0,2012-12-11 13:53:00
6:33 AM,30.2,28.4,93,29.78,10.0,NNE,3.5,-,N/A,,Overcast,20,2012-12-11 14:33:00
6:53 AM,30.9,28.0,89,29.81,10.0,Calm,Calm,-,N/A,,Overcast,0,2012-12-11 14:53:00
7:17 AM,30.2,28.4,93,29.76,10.0,North,3.5,-,N/A,,Overcast,10,2012-12-11 15:17:00
7:45 AM,30.2,28.4,93,29.76,10.0,North,4.6,-,N/A,,Overcast,360,2012-12-11 15:45:00
7:53 AM,30.9,28.0,89,29.79,10.0,North,3.5,-,N/A,,Overcast,10,2012-12-11 15:53:00
8:53 AM,30.9,28.0,89,29.76,10.0,North,3.5,-,N/A,,Overcast,350,2012-12-11 16:53:00
9:09 AM,30.2,28.4,93,29.72,10.0,Calm,Calm,-,N/A,,Overcast,0,2012-12-11 17:09:00
9:53 AM,32.0,28.0,85,29.77,10.0,North,3.5,-,N/A,,Overcast,350,2012-12-11 17:53:00
10:25 AM,32.0,28.4,87,29.70,10.0,North,5.8,-,N/A,,Overcast,350,2012-12-11 18:25:00
10:53 AM,33.1,28.0,82,29.72,10.0,Calm,Calm,-,N/A,,Overcast,0,2012-12-11 18:53:00
11:53 AM,32.0,28.0,85,29.70,10.0,Calm,Calm,-,N/A,,Scattered Clouds,0,2012-12-11 19:53:00
12:50 PM,33.8,28.4,81,29.64,10.0,NW,3.5,-,N/A,,Mostly Cloudy,320,2012-12-11 20:50:00
12:53 PM,33.1,28.9,85,29.68,10.0,NNW,3.5,-,N/A,,Mostly Cloudy,330,2012-12-11 20:53:00
1:53 PM,34.0,28.0,79,29.65,10.0,Calm,Calm,-,N/A,,Overcast,0,2012-12-11 21:53:00
2:53 PM,34.0,28.0,79,29.64,10.0,Calm,Calm,-,N/A,,Overcast,0,2012-12-11 22:53:00
3:53 PM,33.1,28.0,82,29.63,10.0,North,5.8,-,N/A,,Overcast,360,2012-12-11 23:53:00
4:38 PM,33.8,26.6,75,29.59,10.0,NNW,8.1,-,N/A,,Overcast,330,2012-12-12 00:38:00
4:53 PM,33.1,28.0,82,29.63,10.0,NNW,8.1,-,N/A,,Overcast,330,2012-12-12 00:53:00
5:53 PM,33.1,28.0,82,29.63,10.0,Calm,Calm,-,N/A,,Overcast,0,2012-12-12 01:53:00
6:24 PM,32.0,28.4,87,29.59,2.5,NNE,3.5,-,0.00,Snow,Light Snow,30,2012-12-12 02:24:00
6:33 PM,32.0,28.4,87,29.59,1.8,Calm,Calm,-,0.00,Snow,Light Snow,0,2012-12-12 02:33:00
6:49 PM,32.0,28.4,87,29.58,3.0,Calm,Calm,-,0.00,Snow,Light Snow,0,2012-12-12 02:49:00
6:50 PM,32.0,28.9,88,29.62,3.0,Calm,Calm,-,0.00,Snow,Light Snow,0,2012-12-12 02:50:00
7:05 PM,30.2,28.4,93,29.58,2.5,Calm,Calm,-,0.00,Snow,Light Snow,0,2012-12-12 03:05:00
7:19 PM,30.2,28.4,93,29.58,3.0,Calm,Calm,-,0.01,Snow,Light Snow,0,2012-12-12 03:19:00
7:53 PM,30.9,28.9,92,29.62,4.0,Calm,Calm,-,0.01,Snow,Light Snow,0,2012-12-12 03:53:00
8:28 PM,30.2,30.2,100,29.58,2.0,Calm,Calm,-,0.00,Snow,Light Snow,0,2012-12-12 04:28:00
8:44 PM,30.2,28.4,93,29.58,2.0,Calm,Calm,-,0.00,Snow,Light Snow,0,2012-12-12 04:44:00
8:53 PM,30.9,28.9,92,29.62,2.0,Calm,Calm,-,0.00,Snow,Light Snow,0,2012-12-12 04:53:00
9:11 PM,30.2,28.4,93,29.59,1.8,Calm,Calm,-,0.01,Snow,Light Snow,0,2012-12-12 05:11:00
9:53 PM,30.9,28.9,92,29.63,1.5,Calm,Calm,-,0.03,Snow,Light Snow,0,2012-12-12 05:53:00
10:11 PM,30.2,30.2,100,29.59,1.0,Calm,Calm,-,0.01,Snow,Light Snow,0,2012-12-12 06:11:00
10:23 PM,30.2,30.2,100,29.59,1.2,Calm,Calm,-,0.02,Snow,Light Snow,0,2012-12-12 06:23:00
10:44 PM,30.2,30.2,100,29.59,1.5,Calm,Calm,-,0.02,Snow,Light Snow,0,2012-12-12 06:44:00
10:53 PM,30.9,28.9,92,29.63,1.5,NNW,3.5,-,0.03,Snow,Light Snow,340,2012-12-12 06:53:00
11:01 PM,30.2,28.4,93,29.59,1.8,NNW,3.5,-,0.00,Snow,Light Snow,340,2012-12-12 07:01:00
11:10 PM,30.2,28.4,93,29.60,2.0,NNW,3.5,-,0.00,Snow,Light Snow,330,2012-12-12 07:10:00
11:53 PM,30.9,30.0,96,29.64,2.5,Calm,Calm,-,0.01,Snow,Light Snow,0,2012-12-12 07:53:00
11:56 PM,30.2,30.2,100,29.60,3.0,Calm,Calm,-,0.00,Snow,Light Snow,0,2012-12-12 07:56:00